******************************************************************************* JPL/HORIZONS (2006 RH120) 2025-Dec-12 17:47:25 Rec #:50022245 (+COV) Soln.date: 2025-May-20_14:22:14 # obs: 132 (2006-2007) IAU76/J2000 helio. ecliptic osc. elements (au, days, deg., period=Julian yrs): EPOCH= 2454099.5 ! 2006-Dec-30.00 (TDB) Residual RMS= .48178 EC= .03574810063215825 QR= .96035514878686 TP= 2454169.4403147777 OM= 49.64447431634257 W= 121.6218810603342 IN= .2831057718033617 A= .995958783608789 MA= 290.6463045025819 ADIST= 1.031562418430718 PER= .99396 N= .9916125730000001 ANGMOM= .017156332 DAN= 1.01369 DDN= .97639 L= 171.2666677 B= .2410719 MOID= .00375237 TP= 2007-Mar-09.9403147777 Asteroid physical parameters (km, seconds, rotational period in hours): GM= n.a. RAD= n.a. ROTPER= .04583 H= 29.5 G= .150 B-V= n.a. ALBEDO= n.a. STYP= n.a. Asteroid non-gravitational force model (AMRAT= m^2/kg;A1,A2,A3=au/d^2;R0=au): AMRAT= 0. A1= 1.406618673354E-10 A2= -4.908956121653E-11 A3= -1.197467790917E-11 Non-standard or simulated/proxy model: ALN= 1. NK= 0. NM= 2. NN= 0. R0= 1. ASTEROID comments: 1: soln ref.= JPL#54, OCC=2 radar( 0 delay, 2 Dop.) 2: source=ORB ******************************************************************************* ******************************************************************************* Ephemeris / WWW_USER Fri Dec 12 17:47:25 2025 Pasadena, USA / Horizons ******************************************************************************* Target body name: (2006 RH120) {source: JPL#54} Center body name: Earth (399) {source: DE441} Center-site name: GEOCENTRIC ******************************************************************************* Start time : A.D. 2006-Jul-01 00:00:00.0000 UT Stop time : A.D. 2007-Jul-14 00:00:00.0000 UT Step-size : 1440 minutes ******************************************************************************* Target pole/equ : undefined Target radii : undefined Center geodetic : 0.0, 0.0, -6378.137 {E-lon(deg),Lat(deg),Alt(km)} Center cylindric: 0.0, 0.0, 0.0 {E-lon(deg),Dxy(km),Dz(km)} Center pole/equ : ITRF93 {East-longitude positive} Center radii : 6378.137, 6378.137, 6356.752 km {Equator_a, b, pole_c} Target primary : Sun Vis. interferer : MOON (R_eq= 1737.400) km {source: DE441} Rel. light bend : Sun {source: DE441} Rel. lght bnd GM: 1.3271E+11 km^3/s^2 Small-body perts: Yes {source: SB441-N16} Atmos refraction: NO (AIRLESS) RA format : HMS Time format : CAL Calendar mode : Mixed Julian/Gregorian EOP file : eop.251212.p260310 EOP coverage : DATA-BASED 1962-JAN-20 TO 2025-DEC-12. PREDICTS-> 2026-MAR-09 Units conversion: 1 au= 149597870.700 km, c= 299792.458 km/s, 1 day= 86400.0 s Table cut-offs 1: Elevation (-90.0deg=NO ),Airmass (>38.000=NO), Daylight (NO ) Table cut-offs 2: Solar elongation ( 0.0,180.0=NO ),Local Hour Angle( 0.0=NO ) Table cut-offs 3: RA/DEC angular rate ( 0.0=NO ) ******************************************************************************* Initial IAU76/J2000 heliocentric ecliptic osculating elements (au, days, deg.): EPOCH= 2454099.5 ! 2006-Dec-30.00 (TDB) Residual RMS= .48178 EC= .03574810063215825 QR= .96035514878686 TP= 2454169.4403147777 OM= 49.64447431634257 W= 121.6218810603342 IN= .2831057718033617 Equivalent ICRF heliocentric cartesian coordinates (au, au/d): X=-1.373719648819976E-01 Y= 8.930090544244500E-01 Z= 3.911303778451980E-01 VX=-1.717276970201984E-02 VY=-2.789225675551798E-03 VZ=-1.149318338553825E-03 Asteroid physical parameters (km, seconds, rotational period in hours): GM= n.a. RAD= n.a. ROTPER= .04583 H= 29.5 G= .150 B-V= n.a. ALBEDO= n.a. STYP= n.a. Asteroid non-gravitational force model (AMRAT= m^2/kg;A1,A2,A3=au/d^2;R0=au): AMRAT= 0. A1= 1.406618673354E-10 A2= -4.908956121653E-11 A3= -1.197467790917E-11 Non-standard or simulated/proxy model: ALN= 1. NK= 0. NM= 2. NN= 0. R0= 1. ******************************************************************************* Date__(UT)__HR:MN delta deldot *************************************************** $$SOE 2006-Jul-01 00:00 0.01023963185730 -0.0718886 2006-Jul-02 00:00 0.01019873006745 -0.0697665 2006-Jul-03 00:00 0.01015901349501 -0.0677735 2006-Jul-04 00:00 0.01012042640899 -0.0658448 2006-Jul-05 00:00 0.01008295016390 -0.0639164 2006-Jul-06 00:00 0.01004660314906 -0.0619236 2006-Jul-07 00:00 0.01001144188111 -0.0597993 2006-Jul-08 00:00 0.00997756185965 -0.0574763 2006-Jul-09 00:00 0.00994509568218 -0.0548949 2006-Jul-10 00:00 0.00991420539336 -0.0520154 2006-Jul-11 00:00 0.00988506655116 -0.0488334 2006-Jul-12 00:00 0.00985784343857 -0.0453941 2006-Jul-13 00:00 0.00983265808444 -0.0417988 2006-Jul-14 00:00 0.00980955904968 -0.0381985 2006-Jul-15 00:00 0.00978849732506 -0.0347763 2006-Jul-16 00:00 0.00976931495017 -0.0317220 2006-Jul-17 00:00 0.00975174788107 -0.0292097 2006-Jul-18 00:00 0.00973544051945 -0.0273804 2006-Jul-19 00:00 0.00971996713853 -0.0263353 2006-Jul-20 00:00 0.00970485554602 -0.0261345 2006-Jul-21 00:00 0.00968960974960 -0.0268011 2006-Jul-22 00:00 0.00967372996178 -0.0283260 2006-Jul-23 00:00 0.00965672934546 -0.0306745 2006-Jul-24 00:00 0.00963814738706 -0.0337911 2006-Jul-25 00:00 0.00961755993100 -0.0376063 2006-Jul-26 00:00 0.00959458599242 -0.0420412 2006-Jul-27 00:00 0.00956889162267 -0.0470123 2006-Jul-28 00:00 0.00954019130262 -0.0524360 2006-Jul-29 00:00 0.00950824744498 -0.0582304 2006-Jul-30 00:00 0.00947286851955 -0.0643182 2006-Jul-31 00:00 0.00943390616542 -0.0706274 2006-Aug-01 00:00 0.00939125161837 -0.0770929 2006-Aug-02 00:00 0.00934483190518 -0.0836559 2006-Aug-03 00:00 0.00929460633335 -0.0902631 2006-Aug-04 00:00 0.00924056359506 -0.0968660 2006-Aug-05 00:00 0.00918271928450 -0.1034201 2006-Aug-06 00:00 0.00912111297568 -0.1098873 2006-Aug-07 00:00 0.00905580347436 -0.1162401 2006-Aug-08 00:00 0.00898686075056 -0.1224685 2006-Aug-09 00:00 0.00891435375097 -0.1285871 2006-Aug-10 00:00 0.00883833500162 -0.1346383 2006-Aug-11 00:00 0.00875882521494 -0.1406885 2006-Aug-12 00:00 0.00867580270432 -0.1468153 2006-Aug-13 00:00 0.00858920183729 -0.1530900 2006-Aug-14 00:00 0.00849892188438 -0.1595606 2006-Aug-15 00:00 0.00840484410872 -0.1662404 2006-Aug-16 00:00 0.00830685287259 -0.1731052 2006-Aug-17 00:00 0.00820485666016 -0.1800966 2006-Aug-18 00:00 0.00809880643449 -0.1871270 2006-Aug-19 00:00 0.00798871043032 -0.1940866 2006-Aug-20 00:00 0.00787464560155 -0.2008480 2006-Aug-21 00:00 0.00775676639832 -0.2072708 2006-Aug-22 00:00 0.00763531156447 -0.2132040 2006-Aug-23 00:00 0.00751060947747 -0.2184886 2006-Aug-24 00:00 0.00738308235672 -0.2229588 2006-Aug-25 00:00 0.00725324950561 -0.2264444 2006-Aug-26 00:00 0.00712172962004 -0.2287719 2006-Aug-27 00:00 0.00698924205904 -0.2297666 2006-Aug-28 00:00 0.00685660680087 -0.2292552 2006-Aug-29 00:00 0.00672474259728 -0.2270697 2006-Aug-30 00:00 0.00659466262171 -0.2230521 2006-Aug-31 00:00 0.00646746675600 -0.2170613 2006-Sep-01 00:00 0.00634432968608 -0.2089808 2006-Sep-02 00:00 0.00622648432179 -0.1987268 2006-Sep-03 00:00 0.00611520086075 -0.1862548 2006-Sep-04 00:00 0.00601176316055 -0.1715618 2006-Sep-05 00:00 0.00591744591001 -0.1546807 2006-Sep-06 00:00 0.00583349817956 -0.1356633 2006-Sep-07 00:00 0.00576114049786 -0.1145511 2006-Sep-08 00:00 0.00570157948210 -0.0913487 2006-Sep-09 00:00 0.00565602630371 -0.0660462 2006-Sep-10 00:00 0.00562567971090 -0.0387158 2006-Sep-11 00:00 0.00561164912673 -0.0096036 2006-Sep-12 00:00 0.00561484819918 0.0208641 2006-Sep-13 00:00 0.00563590390287 0.0521312 2006-Sep-14 00:00 0.00567509908196 0.0835719 2006-Sep-15 00:00 0.00573234869653 0.1145469 2006-Sep-16 00:00 0.00580720655257 0.1444523 2006-Sep-17 00:00 0.00589889769890 0.1727589 2006-Sep-18 00:00 0.00600636959267 0.1990378 2006-Sep-19 00:00 0.00612835398898 0.2229717 2006-Sep-20 00:00 0.00626343186957 0.2443548 2006-Sep-21 00:00 0.00641009524033 0.2630826 2006-Sep-22 00:00 0.00656680165553 0.2791374 2006-Sep-23 00:00 0.00673201930079 0.2925708 2006-Sep-24 00:00 0.00690426203660 0.3034865 2006-Sep-25 00:00 0.00708211485205 0.3120247 2006-Sep-26 00:00 0.00726425075622 0.3183479 2006-Sep-27 00:00 0.00744944037898 0.3226298 2006-Sep-28 00:00 0.00763655560905 0.3250460 2006-Sep-29 00:00 0.00782456857677 0.3257672 2006-Sep-30 00:00 0.00801254726421 0.3249539 2006-Oct-01 00:00 0.00819964903133 0.3227549 2006-Oct-02 00:00 0.00838511339219 0.3193061 2006-Oct-03 00:00 0.00856825541350 0.3147338 2006-Oct-04 00:00 0.00874846100839 0.3091579 2006-Oct-05 00:00 0.00892518493400 0.3026975 2006-Oct-06 00:00 0.00909795128164 0.2954739 2006-Oct-07 00:00 0.00926635482559 0.2876101 2006-Oct-08 00:00 0.00943006052304 0.2792249 2006-Oct-09 00:00 0.00958879873563 0.2704244 2006-Oct-10 00:00 0.00974235561012 0.2612949 2006-Oct-11 00:00 0.00989056038993 0.2518993 2006-Oct-12 00:00 0.01003327264783 0.2422803 2006-Oct-13 00:00 0.01017037196943 0.2324657 2006-Oct-14 00:00 0.01030175120824 0.2224748 2006-Oct-15 00:00 0.01042731312323 0.2123232 2006-Oct-16 00:00 0.01054696951874 0.2020269 2006-Oct-17 00:00 0.01066064188018 0.1916038 2006-Oct-18 00:00 0.01076826266618 0.1810740 2006-Oct-19 00:00 0.01086977665488 0.1704599 2006-Oct-20 00:00 0.01096514194438 0.1597851 2006-Oct-21 00:00 0.01105433035375 0.1490732 2006-Oct-22 00:00 0.01113732707613 0.1383468 2006-Oct-23 00:00 0.01121412951823 0.1276254 2006-Oct-24 00:00 0.01128474532672 0.1169246 2006-Oct-25 00:00 0.01134918964431 0.1062546 2006-Oct-26 00:00 0.01140748164509 0.0956189 2006-Oct-27 00:00 0.01145964036764 0.0850134 2006-Oct-28 00:00 0.01150567981521 0.0744246 2006-Oct-29 00:00 0.01154560327573 0.0638286 2006-Oct-30 00:00 0.01157939690648 0.0531898 2006-Oct-31 00:00 0.01160702291424 0.0424610 2006-Nov-01 00:00 0.01162841319331 0.0315851 2006-Nov-02 00:00 0.01164346498691 0.0205003 2006-Nov-03 00:00 0.01165204070399 0.0091495 2006-Nov-04 00:00 0.01165397389117 -0.0025080 2006-Nov-05 00:00 0.01164908201197 -0.0144857 2006-Nov-06 00:00 0.01163718427280 -0.0267637 2006-Nov-07 00:00 0.01161812045805 -0.0392918 2006-Nov-08 00:00 0.01159176617156 -0.0519981 2006-Nov-09 00:00 0.01155804154582 -0.0648023 2006-Nov-10 00:00 0.01151691323655 -0.0776250 2006-Nov-11 00:00 0.01146839165715 -0.0903946 2006-Nov-12 00:00 0.01141252607666 -0.1030482 2006-Nov-13 00:00 0.01134939970246 -0.1155307 2006-Nov-14 00:00 0.01127912593338 -0.1277922 2006-Nov-15 00:00 0.01120184613129 -0.1397855 2006-Nov-16 00:00 0.01111772869058 -0.1514639 2006-Nov-17 00:00 0.01102696885104 -0.1627810 2006-Nov-18 00:00 0.01092978851580 -0.1736912 2006-Nov-19 00:00 0.01082643525771 -0.1841517 2006-Nov-20 00:00 0.01071717972236 -0.1941260 2006-Nov-21 00:00 0.01060231079260 -0.2035882 2006-Nov-22 00:00 0.01048212818330 -0.2125274 2006-Nov-23 00:00 0.01035693255286 -0.2209519 2006-Nov-24 00:00 0.01022701365530 -0.2288914 2006-Nov-25 00:00 0.01009263738775 -0.2363988 2006-Nov-26 00:00 0.00995403273627 -0.2435489 2006-Nov-27 00:00 0.00981137962254 -0.2504361 2006-Nov-28 00:00 0.00966479865743 -0.2571706 2006-Nov-29 00:00 0.00951434398428 -0.2638711 2006-Nov-30 00:00 0.00936000079262 -0.2706557 2006-Dec-01 00:00 0.00920168947718 -0.2776282 2006-Dec-02 00:00 0.00903927830291 -0.2848626 2006-Dec-03 00:00 0.00887260525287 -0.2923876 2006-Dec-04 00:00 0.00870150738159 -0.3001767 2006-Dec-05 00:00 0.00852585334872 -0.3081476 2006-Dec-06 00:00 0.00834557355468 -0.3161708 2006-Dec-07 00:00 0.00816068366214 -0.3240829 2006-Dec-08 00:00 0.00797130033280 -0.3316996 2006-Dec-09 00:00 0.00777764966334 -0.3388284 2006-Dec-10 00:00 0.00758006754844 -0.3452844 2006-Dec-11 00:00 0.00737899086868 -0.3509048 2006-Dec-12 00:00 0.00717494247285 -0.3555543 2006-Dec-13 00:00 0.00696851650735 -0.3591198 2006-Dec-14 00:00 0.00676036861623 -0.3615001 2006-Dec-15 00:00 0.00655121099114 -0.3625997 2006-Dec-16 00:00 0.00634180956632 -0.3623284 2006-Dec-17 00:00 0.00613298015903 -0.3606049 2006-Dec-18 00:00 0.00592558083027 -0.3573658 2006-Dec-19 00:00 0.00572049865140 -0.3525758 2006-Dec-20 00:00 0.00551863055365 -0.3462373 2006-Dec-21 00:00 0.00532086021891 -0.3383937 2006-Dec-22 00:00 0.00512803587941 -0.3291219 2006-Dec-23 00:00 0.00494095667588 -0.3185100 2006-Dec-24 00:00 0.00476037670430 -0.3066184 2006-Dec-25 00:00 0.00458703502898 -0.2934296 2006-Dec-26 00:00 0.00442171646590 -0.2787940 2006-Dec-27 00:00 0.00426534239005 -0.2623817 2006-Dec-28 00:00 0.00411908409893 -0.2436546 2006-Dec-29 00:00 0.00398448427690 -0.2218684 2006-Dec-30 00:00 0.00386356522784 -0.1961191 2006-Dec-31 00:00 0.00375889193258 -0.1654590 2007-Jan-01 00:00 0.00367353842212 -0.1291183 2007-Jan-02 00:00 0.00361090241643 -0.0867944 2007-Jan-03 00:00 0.00357435826783 -0.0389043 2007-Jan-04 00:00 0.00356679797608 0.0132936 2007-Jan-05 00:00 0.00359015768165 0.0677815 2007-Jan-06 00:00 0.00364505832179 0.1220902 2007-Jan-07 00:00 0.00373067080590 0.1737452 2007-Jan-08 00:00 0.00384483909404 0.2206849 2007-Jan-09 00:00 0.00398440172917 0.2615134 2007-Jan-10 00:00 0.00414559831814 0.2955442 2007-Jan-11 00:00 0.00432445229894 0.3226876 2007-Jan-12 00:00 0.00451706423423 0.3432680 2007-Jan-13 00:00 0.00471979730534 0.3578428 2007-Jan-14 00:00 0.00492936884928 0.3670623 2007-Jan-15 00:00 0.00514287857286 0.3715939 2007-Jan-16 00:00 0.00535781615539 0.3721292 2007-Jan-17 00:00 0.00557209334388 0.3694462 2007-Jan-18 00:00 0.00578409177404 0.3643716 2007-Jan-19 00:00 0.00599264267405 0.3576078 2007-Jan-20 00:00 0.00619692422278 0.3496566 2007-Jan-21 00:00 0.00639635872431 0.3408732 2007-Jan-22 00:00 0.00659054404770 0.3315147 2007-Jan-23 00:00 0.00677920196214 0.3217538 2007-Jan-24 00:00 0.00696213053571 0.3116833 2007-Jan-25 00:00 0.00713916087636 0.3013274 2007-Jan-26 00:00 0.00731012240025 0.2906592 2007-Jan-27 00:00 0.00747481922506 0.2796213 2007-Jan-28 00:00 0.00763301762940 0.2681429 2007-Jan-29 00:00 0.00778444278707 0.2561544 2007-Jan-30 00:00 0.00792878246354 0.2435972 2007-Jan-31 00:00 0.00806569555935 0.2304308 2007-Feb-01 00:00 0.00819482373728 0.2166365 2007-Feb-02 00:00 0.00831580458688 0.2022189 2007-Feb-03 00:00 0.00842828487018 0.1872049 2007-Feb-04 00:00 0.00853193251844 0.1716402 2007-Feb-05 00:00 0.00862644635122 0.1555851 2007-Feb-06 00:00 0.00871156297077 0.1391095 2007-Feb-07 00:00 0.00878706082922 0.1222877 2007-Feb-08 00:00 0.00885276191829 0.1051957 2007-Feb-09 00:00 0.00890853178680 0.0879081 2007-Feb-10 00:00 0.00895427863076 0.0704979 2007-Feb-11 00:00 0.00898995206572 0.0530355 2007-Feb-12 00:00 0.00901554193691 0.0355899 2007-Feb-13 00:00 0.00903107718381 0.0182275 2007-Feb-14 00:00 0.00903662436009 0.0010116 2007-Feb-15 00:00 0.00903228493831 -0.0160007 2007-Feb-16 00:00 0.00901819011217 -0.0327647 2007-Feb-17 00:00 0.00899449171896 -0.0492552 2007-Feb-18 00:00 0.00896134851591 -0.0654744 2007-Feb-19 00:00 0.00891890854362 -0.0814576 2007-Feb-20 00:00 0.00886729025995 -0.0972713 2007-Feb-21 00:00 0.00880656641951 -0.1130053 2007-Feb-22 00:00 0.00873675426683 -0.1287597 2007-Feb-23 00:00 0.00865781357213 -0.1446314 2007-Feb-24 00:00 0.00856965160751 -0.1607039 2007-Feb-25 00:00 0.00847213266854 -0.1770419 2007-Feb-26 00:00 0.00836508959853 -0.1936897 2007-Feb-27 00:00 0.00824833548741 -0.2106716 2007-Feb-28 00:00 0.00812167459388 -0.2279942 2007-Mar-01 00:00 0.00798491215689 -0.2456479 2007-Mar-02 00:00 0.00783786303702 -0.2636092 2007-Mar-03 00:00 0.00768035917362 -0.2818428 2007-Mar-04 00:00 0.00751225581531 -0.3003036 2007-Mar-05 00:00 0.00733343651134 -0.3189390 2007-Mar-06 00:00 0.00714381700536 -0.3376904 2007-Mar-07 00:00 0.00694334844774 -0.3564937 2007-Mar-08 00:00 0.00673202066775 -0.3752787 2007-Mar-09 00:00 0.00650986653347 -0.3939659 2007-Mar-10 00:00 0.00627696862164 -0.4124616 2007-Mar-11 00:00 0.00603346955773 -0.4306500 2007-Mar-12 00:00 0.00577958758779 -0.4483830 2007-Mar-13 00:00 0.00551563942769 -0.4654647 2007-Mar-14 00:00 0.00524207358098 -0.4816301 2007-Mar-15 00:00 0.00495951983589 -0.4965090 2007-Mar-16 00:00 0.00466886582490 -0.5095654 2007-Mar-17 00:00 0.00437138136738 -0.5199883 2007-Mar-18 00:00 0.00406892822437 -0.5264973 2007-Mar-19 00:00 0.00376431818018 -0.5270147 2007-Mar-20 00:00 0.00346191225438 -0.5181525 2007-Mar-21 00:00 0.00316856874418 -0.4945322 2007-Mar-22 00:00 0.00289498055160 -0.4482031 2007-Mar-23 00:00 0.00265710629718 -0.3691618 2007-Mar-24 00:00 0.00247646230109 -0.2492596 2007-Mar-25 00:00 0.00237662156431 -0.0912995 2007-Mar-26 00:00 0.00237440439588 0.0839607 2007-Mar-27 00:00 0.00247089954997 0.2455150 2007-Mar-28 00:00 0.00265091183082 0.3709559 2007-Mar-29 00:00 0.00289144892975 0.4556258 2007-Mar-30 00:00 0.00317061888543 0.5063257 2007-Mar-31 00:00 0.00347156165953 0.5325580 2007-Apr-01 00:00 0.00378256355012 0.5423025 2007-Apr-02 00:00 0.00409584076913 0.5412065 2007-Apr-03 00:00 0.00440628895673 0.5330033 2007-Apr-04 00:00 0.00471055097844 0.5201022 2007-Apr-05 00:00 0.00500639412944 0.5040522 2007-Apr-06 00:00 0.00529231015528 0.4858552 2007-Apr-07 00:00 0.00556726226266 0.4661705 2007-Apr-08 00:00 0.00583053249703 0.4454661 2007-Apr-09 00:00 0.00608164962583 0.4241484 2007-Apr-10 00:00 0.00632038039435 0.4026390 2007-Apr-11 00:00 0.00654673212987 0.3813339 2007-Apr-12 00:00 0.00676091182303 0.3605208 2007-Apr-13 00:00 0.00696326081952 0.3403859 2007-Apr-14 00:00 0.00715421249787 0.3210699 2007-Apr-15 00:00 0.00733427596766 0.3026950 2007-Apr-16 00:00 0.00750402353548 0.2853540 2007-Apr-17 00:00 0.00766406575429 0.2690817 2007-Apr-18 00:00 0.00781501052684 0.2538314 2007-Apr-19 00:00 0.00795741350303 0.2394702 2007-Apr-20 00:00 0.00809173319447 0.2257997 2007-Apr-21 00:00 0.00821830307955 0.2125919 2007-Apr-22 00:00 0.00833732551134 0.1996260 2007-Apr-23 00:00 0.00844888381235 0.1867135 2007-Apr-24 00:00 0.00855296446055 0.1737081 2007-Apr-25 00:00 0.00864948158698 0.1605047 2007-Apr-26 00:00 0.00873829889329 0.1470325 2007-Apr-27 00:00 0.00881924712817 0.1332468 2007-Apr-28 00:00 0.00889213727181 0.1191229 2007-Apr-29 00:00 0.00895677048935 0.1046511 2007-Apr-30 00:00 0.00901294608422 0.0898343 2007-May-01 00:00 0.00906046847107 0.0746872 2007-May-02 00:00 0.00909915383801 0.0592358 2007-May-03 00:00 0.00912883680697 0.0435181 2007-May-04 00:00 0.00914937708774 0.0275829 2007-May-05 00:00 0.00916066586731 0.0114901 2007-May-06 00:00 0.00916263148196 -0.0046918 2007-May-07 00:00 0.00915524381632 -0.0208880 2007-May-08 00:00 0.00913851692275 -0.0370209 2007-May-09 00:00 0.00911250954351 -0.0530140 2007-May-10 00:00 0.00907732335542 -0.0687959 2007-May-11 00:00 0.00903309858387 -0.0843055 2007-May-12 00:00 0.00898000610181 -0.0994992 2007-May-13 00:00 0.00891823457052 -0.1143609 2007-May-14 00:00 0.00884797121966 -0.1289135 2007-May-15 00:00 0.00876937615196 -0.1432292 2007-May-16 00:00 0.00868255273854 -0.1574320 2007-May-17 00:00 0.00858751974743 -0.1716883 2007-May-18 00:00 0.00848419223094 -0.1861866 2007-May-19 00:00 0.00837237619566 -0.2011119 2007-May-20 00:00 0.00825177732809 -0.2166237 2007-May-21 00:00 0.00812201942188 -0.2328451 2007-May-22 00:00 0.00798266625806 -0.2498614 2007-May-23 00:00 0.00783324180925 -0.2677264 2007-May-24 00:00 0.00767324619242 -0.2864703 2007-May-25 00:00 0.00750216711842 -0.3061068 2007-May-26 00:00 0.00731948794370 -0.3266377 2007-May-27 00:00 0.00712469388382 -0.3480550 2007-May-28 00:00 0.00691727783609 -0.3703398 2007-May-29 00:00 0.00669674686637 -0.3934614 2007-May-30 00:00 0.00646262993719 -0.4173744 2007-May-31 00:00 0.00621448710241 -0.4420160 2007-Jun-01 00:00 0.00595192048106 -0.4673024 2007-Jun-02 00:00 0.00567458817487 -0.4931218 2007-Jun-03 00:00 0.00538222415034 -0.5193200 2007-Jun-04 00:00 0.00507467033848 -0.5456706 2007-Jun-05 00:00 0.00475193290974 -0.5718182 2007-Jun-06 00:00 0.00441428552470 -0.5971667 2007-Jun-07 00:00 0.00406246406709 -0.6206620 2007-Jun-08 00:00 0.00369804215871 -0.6403577 2007-Jun-09 00:00 0.00332417052502 -0.6525361 2007-Jun-10 00:00 0.00294705547486 -0.6499274 2007-Jun-11 00:00 0.00257889712277 -0.6183138 2007-Jun-12 00:00 0.00224329931244 -0.5316581 2007-Jun-13 00:00 0.00198246804461 -0.3534912 2007-Jun-14 00:00 0.00185542001882 -0.0726097 2007-Jun-15 00:00 0.00190383584265 0.2340572 2007-Jun-16 00:00 0.00210948842303 0.4599644 2007-Jun-17 00:00 0.00241509221200 0.5835674 2007-Jun-18 00:00 0.00277024128077 0.6378539 2007-Jun-19 00:00 0.00314470552849 0.6546213 2007-Jun-20 00:00 0.00352278752836 0.6525932 2007-Jun-21 00:00 0.00389674225564 0.6414402 2007-Jun-22 00:00 0.00426286224609 0.6260167 2007-Jun-23 00:00 0.00461946564540 0.6087618 2007-Jun-24 00:00 0.00496588977040 0.5909029 2007-Jun-25 00:00 0.00530198252606 0.5730488 2007-Jun-26 00:00 0.00562784062970 0.5554872 2007-Jun-27 00:00 0.00594367349545 0.5383392 2007-Jun-28 00:00 0.00624973407581 0.5216453 2007-Jun-29 00:00 0.00654628864661 0.5054189 2007-Jun-30 00:00 0.00683361380899 0.4896890 2007-Jul-01 00:00 0.00711201654045 0.4745365 2007-Jul-02 00:00 0.00738186870326 0.4601030 2007-Jul-03 00:00 0.00764363367977 0.4465550 2007-Jul-04 00:00 0.00789786611431 0.4340362 2007-Jul-05 00:00 0.00814519272861 0.4226528 2007-Jul-06 00:00 0.00838629247699 0.4124810 2007-Jul-07 00:00 0.00862188059333 0.4035699 2007-Jul-08 00:00 0.00885269176326 0.3959361 2007-Jul-09 00:00 0.00907945869354 0.3895548 2007-Jul-10 00:00 0.00930288565066 0.3843513 2007-Jul-11 00:00 0.00952361880328 0.3801990 2007-Jul-12 00:00 0.00974221673310 0.3769227 2007-Jul-13 00:00 0.00995912553810 0.3743106 2007-Jul-14 00:00 0.01017466306089 0.3721339 $$EOE ******************************************************************************* Column meaning: TIME Times PRIOR to 1962 are UT1, a mean-solar time closely related to the prior but now-deprecated GMT. Times AFTER 1962 are in UTC, the current civil or "wall-clock" time-scale. UTC is kept within 0.9 seconds of UT1 using integer leap-seconds for 1972 and later years. Conversion from the internal Barycentric Dynamical Time (TDB) of solar system dynamics to the non-uniform civil UT time-scale requested for output has not been determined for UTC times after the next July or January 1st. Therefore, the last known leap-second is used as a constant over future intervals. Time tags refer to the UT time-scale conversion from TDB on Earth regardless of observer location within the solar system, although clock rates may differ due to the local gravity field and no analog to "UT" may be defined for that location. Any 'b' symbol in the 1st-column denotes a B.C. date. First-column blank (" ") denotes an A.D. date. CALENDAR SYSTEM Mixed calendar mode was active such that calendar dates after AD 1582-Oct-15 (if any) are in the modern Gregorian system. Dates prior to 1582-Oct-5 (if any) are in the Julian calendar system, which is automatically extended for dates prior to its adoption on 45-Jan-1 BC. The Julian calendar is useful for matching historical dates. The Gregorian calendar more accurately corresponds to the Earth's orbital motion and seasons. A "Gregorian-only" calendar mode is available if such physical events are the primary interest. NOTE: "n.a." in output means quantity "not available" at the print-time. 'delta deldot' = Apparent range ("delta", light-time aberrated) and range-rate ("delta-dot") of the target center relative to the observer. A positive "deldot" means the target center is moving away from the observer, negative indicates movement toward the observer. Units: AU and KM/S Computations by ... Solar System Dynamics Group, Horizons On-Line Ephemeris System 4800 Oak Grove Drive, Jet Propulsion Laboratory Pasadena, CA 91109 USA General site: https://ssd.jpl.nasa.gov/ Mailing list: https://ssd.jpl.nasa.gov/email_list.html System news : https://ssd.jpl.nasa.gov/horizons/news.html User Guide : https://ssd.jpl.nasa.gov/horizons/manual.html Connect : browser https://ssd.jpl.nasa.gov/horizons/app.html#/x API https://ssd-api.jpl.nasa.gov/doc/horizons.html command-line telnet ssd.jpl.nasa.gov 6775 e-mail/batch https://ssd.jpl.nasa.gov/ftp/ssd/horizons_batch.txt scripts https://ssd.jpl.nasa.gov/ftp/ssd/SCRIPTS Author : Jon.D.Giorgini@jpl.nasa.gov ******************************************************************************* !$$SOF COMMAND = '2006 RH120' QUANTITIES = '20' START_TIME = '2006-Jul-01' STEP_SIZE = '1 day' STOP_TIME = '2007-Jul-14'